Location: Chandrammap?lem
(16.9200°N, 81.0051°E)
Time: 10:16:16
(UTC+00:00)

Atlas Centaur 2 - Pass Details

Date: 29 May 2024
Orbit: 458 x 1277 km, 30.4° (Epoch: 14 June)

Event Time Altitude Azimuth Distance (km) Brightness Sun altitude
Exits shadow 21:17:53 16° 2° (N) 1,648 4.1 -34.2°
Drops below altitude 10° 21:19:56 10° 30° (NNE) 1,928 4.8 -33.8°
Sets 21:22:43 0° 51° (NE) 2,702 5.9 -33.3°
